Activity Log for Jan, 01 2019

Back to Activity Log Search


Incident Time Nature Address
19F000002 00:03:04 1 MEET 34XX PLAZA DR
19F000008 00:04:43 113 SHOTS FIRED 59XX VANCE AVE
19F000001 00:05:20 43 DISTURBANCE 1XX E LEITH ST
19F000009 00:06:54 113 SHOTS FIRED 32XX ST JOE CENTER RD
19F000003 00:08:14 25 PD ACCIDENT SOUTHBEND DR & W JEFFERSON BLVD
19F000014 00:08:36 113 SHOTS FIRED 30XX ROCKWOOD DR
19F000005 00:09:55 113 SHOTS FIRED 7XX WOLVERTON DR
19F000004 00:11:10 23,113 6XX RIVERSIDE AVE
19F000006 00:13:40 48 SUSPICIOUS 45XX CASA VERDE DR
19F000007 00:13:57 25 PD ACCIDENT EDSALL AVE & MAUMEE AVE
19F000010 00:17:41 62 PARTY ARMED 44XX SW ANTHONY WAYNE DR
19F000011 00:18:52 41 MAN DOWN GETZ RD & SOUTHBEND DR
19F000012 00:20:31 40A AUDIBLE 57XX S ANTHONY BLVD
19F000013 00:24:02 62 PARTY ARMED W DEWALD ST & FOX AVE
19F000015 00:24:43 65T SUICIDE THR 9XX E WASHINGTON BLVD
19F000016 00:27:40 25,86 W CREIGHTON AVE & FOX AVE
19F000017 00:28:58 46,96 35XX DELRAY DR
19F000019 00:35:31 43 DISTURBANCE 30XX PENNSYLVANIA ST
19F000018 00:36:50 103 UNWANTED 1XX E MASTERSON AVE
19F000020 00:37:10 43 DISTURBANCE 30XX MAUMEE AVE
19F000021 00:38:43 43 DISTURBANCE 25XX MAUMEE AVE
19F000022 00:41:20 41 MAN DOWN S BARR ST & E OAKDALE DR
19F000023 00:41:26 103 UNWANTED 1XX E MASTERSON AVE
19F000025 00:42:35 65A SUICIDE ATT 34XX S ANTHONY BLVD
19F000029 00:44:12 96JO 68XX S HANNA ST
19F000026 00:45:51 911 HANG UP 3XX DUNNWOOD DR
19F000027 00:46:08 102 THREATS 10XX W COLISEUM BLVD
19F000028 00:49:59 103 UNWANTED 61XX W JEFFERSON BLVD
19F000030 00:52:50 40A AUDIBLE 41XX MERCHANT RD
19F000031 00:54:17 113 SHOTS FIRED 19XX CALIFORNIA AVE
19F000032 00:59:45 62 PARTY ARMED WINCH ST & WABASH AVE
19F000038 01:01:03 22RN RUNAWAY 40XX OLIVER ST
19F000036 01:03:09 40A AUDIBLE 49XX WAYNE TRACE
19F000033 01:03:27 33 DISABLED VEH MAPLECREST RD & ROTHMAN RD
19F000034 01:06:17 911 HANG UP 12XX W PACKARD AVE
19F000035 01:06:45 25 PD ACCIDENT 17XX CALIFORNIA AVE
19F000037 01:11:13 46 DOMESTIC 25XX MAUMEE AVE
19F000040 01:21:56 22RN RUNAWAY 9XX TULIP TREE RD
19F000039 01:28:07 63 CONTACT UNION CHAPEL RD & COLDWATER RD
19F000041 01:40:02 43 DISTURBANCE 28XX HOLTON AVE
19F000042 01:41:48 40A AUDIBLE 22XX S BARR ST
19F000043 01:47:24 25 PD ACCIDENT S CALHOUN ST & E WAYNE ST
19F000044 01:55:39 46 DOMESTIC 49XX WEBSTER ST
19F000045 01:59:54 40A AUDIBLE 8XX W COLISEUM BLVD
19F000047 02:00:08 25 PD ACCIDENT S LAFAYETTE ST & E WASHINGTON BLVD
19F000046 02:00:54 25 PD ACCIDENT S CLINTON ST & E RUDISILL BLVD
19F000048 02:03:19 46 DOMESTIC 10XX HUESTIS AVE
19F000049 02:06:00 46 DOMESTIC 60XX OAKMONT RD
19F000050 02:06:05 27 RECKLESS DRI W COLISEUM BLVD & HILLEGAS RD
19F000055 02:16:27 113 SHOTS FIRED 11XX W MAIN ST
19F000094 02:16:33 37 PARKING VIOL 30XX HOLTON AVE
19F000056 02:16:36 103 UNWANTED 13XX S CLINTON ST
19F000051 02:17:13 55 FIGHT LEGOMA DR & AMHERST DR
19F000053 02:18:11 44LM 65XX WALNUT VALLEY DR
19F000054 02:18:26 43 DISTURBANCE 42XX S ANTHONY BLVD
19F000052 02:18:40 22I JUV INVEST 62XX ST JOE RD APT 103
19F000058 02:19:00 46,96 19XX FOX POINT TRL
19F000057 02:19:21 50,ATTEMPTED 12XX ST MARYS AVE APT 1
19F000059 02:24:05 55 FIGHT 4XX KINNAIRD AVE
19F000065 02:24:59 ATL 47XX NORTHCREST DR
19F000060 02:28:13 48,36 8XX IVY CREEK CV
19F000062 02:28:45 113 SHOTS FIRED 29XX E STATE BLVD
19F000061 02:32:50 51 THEFT 30XX W COLISEUM BLVD
19F000063 02:36:22 1 MEET 31XX N CLINTON ST
19F000064 02:38:18 40A AUDIBLE 64XX E STATE BLVD
19F000066 02:40:02 46 DOMESTIC W COLUMBIA ST & S CALHOUN ST
19F000069 02:42:21 22I JUV INVEST 40XX WAYNE TRACE
19F000068 02:44:14 63 CONTACT E STATE BLVD & KENSINGTON BLVD
19F000067 02:45:52 43 DISTURBANCE 15XX GOSHEN AVE
19F000070 02:50:21 25HS HIT SKIP S ANTHONY BLVD & E WAYNE ST
19F000072 02:52:50 48 SUSPICIOUS 6XX WARWICK AVE
19F000071 02:57:54 43 DISTURBANCE 44XX S CALHOUN ST
19F000087 02:59:44 44LM 111XX KNOLLTON RUN
19F000073 03:00:20 48 SUSPICIOUS 11XX SINCLAIR ST
19F000074 03:02:24 46,96 73XX MILL RUN RD
19F000075 03:05:35 40A AUDIBLE 51XX VALUE DR
19F000076 03:07:08 46,96 75XX BLUFFTON RD LOT 51
19F000078 03:13:36 46 DOMESTIC 40XX WAYNE TRACE
19F000077 03:14:07 46 DOMESTIC 9XX E WASHINGTON BLVD
19F000079 03:17:02 41 MAN DOWN E SR 930 & ADAMS CENTER RD
19F000080 03:22:04 15,85 ASST AT O E STATE BLVD & N ANTHONY BLVD
19F000081 03:22:49 46,96 108XX W ROSEWOOD CIR
19F000082 03:26:40 1 MEET 9XX E WASHINGTON BLVD
19F000084 03:28:39 25HS HIT SKIP 10XX HAMILTON AVE
19F000083 03:30:54 1 MEET S CALHOUN ST & E WAYNE ST
19F000085 03:31:22 63 CONTACT 67XX JOHN ST
19F000086 03:40:12 43 DISTURBANCE 8XX W PACKARD AVE
19F000088 03:54:20 46 DOMESTIC 3XX W LEITH ST
19F000089 03:55:05 43 DISTURBANCE 25XX BROOKLYN AVE
19F000091 04:05:19 ALARM FIRE 1XX W WASHINGTON CENTER RD
19F000090 04:09:40 96JO 29XX WESTBROOK DR
19F000092 04:18:48 15 ASSIST 13XX TAYLOR ST
19F000110 04:27:29 44LM 12XX HUESTIS AVE
19F000093 04:28:31 25,86 SR 3 & CARROLL RD
19F000095 04:38:33 40A AUDIBLE 9XX DREXEL AVE
19F000096 04:40:27 43 DISTURBANCE 47XX NORTHCREST DR
19F000098 04:44:59 43 DISTURBANCE 23XX POINT WEST DR APT 2A
19F000097 04:45:21 62 PARTY ARMED 56XX OLD DOVER BLVD APT 3
19F000099 04:52:26 43 DISTURBANCE 47XX JASON DR
19F000101 04:54:51 40A AUDIBLE 36XX PARNELL AVE
19F000100 04:56:03 20 PROBLEM UNK 9XX E WASHINGTON BLVD
19F000102 05:03:44 96IP 21XX HOBSON RD
19F000103 05:18:30 30 TRAFFIC STOP S ANTHONY BLVD & MCKINNIE AVE
19F000104 05:19:01 40A AUDIBLE 64XX LIMA RD
19F000105 05:19:02 43 DISTURBANCE 28XX JOHN ST
19F000106 05:19:28 48,36 11XX COLUMBIA AVE
19F000107 05:24:56 65A SUICIDE ATT 96XX SHELLBROOK DR
19F000108 05:25:15 113 SHOTS FIRED 13XX HUESTIS AVE
19F000119 05:26:01 51,35 65XX BIRCHDALE DR
19F000109 05:28:04 1 MEET 9XX E WASHINGTON BLVD
19F000112 05:33:15 43 DISTURBANCE 76XX HOPE DR
19F000111 05:34:22 911 HANG UP 21XX HOBSON RD UNIT 101
19F000113 05:42:22 113 SHOTS FIRED E PONTIAC ST & REED ST
19F000115 05:43:59 27 RECKLESS DRI 311XX I 69 NB
19F000116 05:44:54 104 KIDNAPPING 8XX COLERICK ST
19F000114 05:45:54 30 TRAFFIC STOP NELSON ST & TAYLOR ST
19F000117 05:52:10 30 TRAFFIC STOP PRODUCTION RD & EXECUTIVE BLVD
19F000118 05:59:40 41,36 MCKINNIE AVE & S ANTHONY BLVD
19F000120 06:08:11 96JO 45XX SMITH ST
19F000122 06:09:06 63 CONTACT 24XX W JEFFERSON BLVD
19F000121 06:09:54 25HS HIT SKIP EVARD RD & MAPLECREST RD
19F000123 06:16:03 65T SUICIDE THR 68XX CHADWICK DR
19F000124 06:16:40 25HS HIT SKIP 58XX KIMBERLEY RD
19F000125 06:24:23 113 SHOTS FIRED 33XX PORTAGE BLVD UNIT 31
19F000127 06:27:32 14 WARRANT 16XX ST JOSEPH BLVD
19F000126 06:29:16 43 DISTURBANCE 38XX BEAVER AVE
19F000128 06:31:31 39JO 19XX OAKLAND ST
19F000129 06:52:21 25 PD ACCIDENT SHERMAN BLVD & W FOURTH ST
19F000131 06:52:33 48 SUSPICIOUS S ANTHONY BLVD & MCKINNIE AVE
19F000130 06:54:43 46 DOMESTIC 10XX LAKE AVE
19F000132 06:57:38 40P PANIC ALARM 67XX MALVERN DR
19F000133 07:00:47 65T SUICIDE THR 37XX TRACE WAY
19F000134 07:23:47 70 FIRE 13XX TAYLOR ST
19F000135 07:28:04 46 DOMESTIC 66XX TRALEE CT
19F000136 07:28:14 46 DOMESTIC 26XX BELLE VISTA BLVD
19F000140 07:30:29 46 DOMESTIC MCKINNIE AVE & BOWSER AVE
19F000137 07:33:29 33,34 GOSHEN AVE & LINCOLN CT
19F000138 07:37:05 101 OPEN DOOR 75XX W MELODY CIR
19F000139 07:37:56 46,96 21XX WEISSER PARK AVE
19F000141 07:48:47 37 PARKING VIOL 13XX HOME AVE
19F000142 07:49:51 33,34 OHIO ST & MAUMEE AVE
19F000144 08:05:52 46 DOMESTIC 58XX TURTLE CREEK DR
19F000143 08:06:24 63 CONTACT 4XX FAIRWICK LN
19F000145 08:13:01 102,TX THREATS 10XX E COLISEUM BLVD
19F000147 08:14:20 51 THEFT 41XX THORTON DR
19F000146 08:20:42 63 CONTACT 77XX BLUFFTON RD
19F000148 08:29:49 43,62 30XX W COLISEUM BLVD
19F000149 08:31:33 40A AUDIBLE 28XX MILLBROOK DR
19F000150 08:34:39 43 DISTURBANCE 32XX E WASHINGTON BLVD
19F000152 08:57:03 65T SUICIDE THR 10XX HUESTIS AVE
19F000151 08:57:48 15 ASSIST 41XX THORTON DR
19F000153 09:03:57 34 TRAFF HAZARD S HANNA ST & ST MARTINS ST
19F000154 09:23:02 101 OPEN DOOR 16XX TYLER AVE
19F000155 09:27:21 65A SUICIDE ATT 57XX WILKIE DR
19F000156 09:31:32 40A AUDIBLE 29XX CENTRAL DR
19F000159 09:36:33 46 DOMESTIC 60XX ULLYOT DR
19F000158 09:38:55 25HS HIT SKIP 11XX SINCLAIR ST
19F000157 09:39:13 129 11XX NORMANDALE DR
19F000160 09:40:46 34 TRAFF HAZARD S CALHOUN ST & MCKINNIE AVE
19F000161 09:46:35 25HS HIT SKIP 51XX VALUE DR
19F000162 09:52:38 HARASSMENT 79XX W JEFFERSON BLVD
19F000163 09:55:35 39 STOLEN VEHIC 57XX CHALLENGER PKWY
19F000184 09:57:26 25HS HIT SKIP 15XX MAUMEE AVE
19F000164 09:58:28 113 SHOTS FIRED 44XX BOWSER AVE
19F000165 10:04:44 23,35 VAND VEH 5XX STADIUM DR
19F000166 10:07:38 25HS HIT SKIP 93XX AUBURN RD
19F000167 10:07:50 67 INDECENT W US 30 & N WESTCOUNTY LINE RD
19F000168 10:13:15 23,113 33XX E STATE BLVD
19F000169 10:18:11 30 TRAFFIC STOP 24XX W JEFFERSON BLVD
19F000170 10:18:57 111D DOG 6XX TENNESSEE AVE
19F000171 10:22:11 46 DOMESTIC 33XX W COLISEUM BLVD
19F000172 10:24:35 46,96 10XX N COLISEUM BLVD
19F000177 10:29:45 63 CONTACT 10XX CROWDER CT
19F000173 10:29:55 46 DOMESTIC 63XX ALVAREZ DR
19F000174 10:34:33 63 CONTACT 19XX FOX POINT TRL
19F000175 10:38:49 48 SUSPICIOUS 17XX APPLE GLEN BLVD
19F000176 10:48:12 46 DOMESTIC 46XX E WASHINGTON BLVD
19F000178 10:51:32 46 DOMESTIC 44XX PLAZA DR
19F000180 11:06:58 51 THEFT 32XX ST JOE CENTER RD
19F000179 11:07:22 40A AUDIBLE 21XX GETZ RD
19F000183 11:15:59 25HS HIT SKIP 24XX N ANTHONY BLVD
19F000181 11:23:00 34 TRAFF HAZARD HUFFMAN ST & SHORT ST
19F000182 11:27:09 43 DISTURBANCE 43XX WARSAW ST
19F000185 11:42:50 63 CONTACT 64XX ST JOE RD
19F000188 11:43:51 51 THEFT 40XX REED ST
19F000187 11:45:17 48 SUSPICIOUS 34XX SHERMAN BLVD
19F000186 11:45:25 30 TRAFFIC STOP ILLINOIS RD & S HADLEY RD
19F000190 11:47:23 1 MEET 59XX BLUFFTON RD
19F000189 11:52:52 65T SUICIDE THR 16XX W WALLEN RD
19F000194 11:56:19 47 REMOVE ITEMS 29XX HOMESTEAD CT
19F000191 11:56:47 96JO 12XX BURGESS ST
19F000192 11:58:02 43 DISTURBANCE 79XX DORSETT DR
19F000193 11:58:51 97 FOUND ITEMS 9XX FULTON ST
19F000197 12:00:59 23,113 12XX CLARA AVE
19F000195 12:11:04 46 DOMESTIC 13XX MICHIGAN AVE
19F000196 12:13:43 39R STOLEN RECO CHARLOTTE AVE & BEACON ST
19F000198 12:28:41 48 SUSPICIOUS 4XX MISSION HILL DR
19F000199 12:32:12 48 SUSPICIOUS W COLISEUM BLVD & GOSHEN RD
19F000200 12:33:07 51 THEFT 2XX THIRD ST
19F000201 12:36:21 63 CONTACT IRVINGTON DR & EDGEWOOD AVE
19F000202 12:38:27 39 STOLEN VEHIC 54XX WINTER ST
19F000203 12:40:42 16,97 40XX VINELAND DR
19F000204 12:41:39 48 SUSPICIOUS 5XX MARBOROUGH DR
19F000205 12:44:16 99 NARCOTICS 43XX PLAZA DR
19F000207 12:44:38 46 DOMESTIC 34XX KENASTON DR
19F000206 12:52:51 19 ESCORT 16XX E COLISEUM BLVD
19F000208 13:04:08 16,97 26XX CREEPING PHLOX CV
19F000209 13:04:13 46 DOMESTIC 23XX BOWSER AVE
19F000210 13:23:41 108 FOLLOWUP 23XX BOWSER AVE
19F000213 13:24:40 23,113 4XX ENGLEWOOD CT
19F000211 13:25:10 25 PD ACCIDENT LAKE AVE & MAPLECREST RD
19F000212 13:25:11 26 PI ACCIDENT LAKE AVE & MAPLECREST RD
19F000215 13:40:22 48 SUSPICIOUS 3XX W PETTIT AVE
19F000214 13:42:13 30 TRAFFIC STOP N HARRISON ST & W FOURTH ST
19F000224 13:49:11 47 REMOVE ITEMS 29XX HOMESTEAD CT
19F000217 13:49:59 40A AUDIBLE 66XX ST JOE RD
19F000218 13:53:11 103 UNWANTED 27XX W COLISEUM BLVD
19F000216 13:53:14 65A SUICIDE ATT 12XX BURGESS ST
19F000219 14:01:05 48 SUSPICIOUS 87XX WHISPERING WOODS DR
19F000222 14:02:29 39U UNAUTHORIZE 29XX SCHELE AVE
19F000220 14:03:36 63 CONTACT 3XX W DEWALD ST APT 101
19F000221 14:04:36 43 DISTURBANCE 36XX BOWSER AVE
19F000225 14:06:45 48 SUSPICIOUS 16XX W JEFFERSON BLVD
19F000223 14:12:19 23,113 44XX PLAZA DR
19F000226 14:14:51 56 MOLESTING 75XX GLENOAK PKWY
19F000227 14:20:38 34 TRAFF HAZARD N HARRISON ST & FIFTH ST
19F000228 14:27:31 48 SUSPICIOUS TAYLOR ST & LINDLEY AVE
19F000229 14:28:09 30 TRAFFIC STOP DAYTON AVE & FAIRFIELD AVE
19F000230 14:29:29 63 CONTACT 7XX TENNESSEE AVE
19F000231 14:31:16 30 TRAFFIC STOP STELLHORN RD & MAPLECREST RD
19F000232 14:36:37 23,113 42XX CHATFIELD CT
19F000233 14:51:59 14S SERVING WAR 36XX OLIVER ST
19F000234 14:58:03 44LM 33XX PORTAGE BLVD UNIT 36
19F000235 15:05:17 22I JUV INVEST E TILLMAN RD & S CALHOUN ST
19F000236 15:08:37 30 TRAFFIC STOP FAIRFIELD AVE & W WILDWOOD AVE
19F000237 15:16:31 65A SUICIDE ATT 3XX W DEWALD ST
19F000238 15:20:29 25HS HIT SKIP 42XX COLDWATER RD
19F000239 15:23:01 63 CONTACT 18XX W COLISEUM BLVD
19F000240 15:25:11 48 SUSPICIOUS 42XX LAKE AVE
19F000241 15:32:12 1 MEET 6XX TENNESSEE AVE
19F000242 15:38:15 46,96 46XX CRAFTSBURY CIR
19F000243 15:40:05 46 DOMESTIC 76XX HOPE DR
19F000245 15:42:23 ATL 37XX E WASHINGTON BLVD
19F000244 15:43:52 30 TRAFFIC STOP S CALHOUN ST & W RUDISILL BLVD
19F000249 15:51:20 66 MENTALLY ILL 29XX GOSHEN RD
19F000246 15:56:55 46 DOMESTIC 29XX WESTBROOK DR UNIT A401
19F000247 15:57:07 48 SUSPICIOUS S CALHOUN ST & MCKINNIE AVE
19F000248 16:00:48 108 FOLLOWUP 10XX HIGH ST
19F000254 16:11:03 1 MEET 29XX KNODE CT
19F000252 16:11:12 63 CONTACT 48XX SMITH ST
19F000250 16:12:36 30 TRAFFIC STOP FAIRFIELD AVE & ROSE LN
19F000251 16:13:35 129 45XX MORNING WIND PL
19F000253 16:13:50 65T SUICIDE THR 33XX OLIVER ST
19F000260 16:15:09 61 RAPE 17XX BEACON ST
19F000255 16:21:22 25HS HIT SKIP 23XX FLORIDA DR
19F000256 16:32:49 43 DISTURBANCE 20XX DREXEL AVE
19F000257 16:34:19 46 DOMESTIC 30XX LILLIE ST
19F000258 16:39:47 48 SUSPICIOUS HENSCH ST & W STATE BLVD
19F000259 16:42:08 1 MEET 27XX E STATE BLVD
19F000261 16:50:48 33,34 SPRING ST & SHERMAN BLVD
19F000262 16:51:43 22RN RUNAWAY 12XX SCOTT AVE
19F000263 16:59:36 25HS HIT SKIP 42XX COLDWATER RD
19F000264 17:04:33 43 DISTURBANCE 14XX BAXTER ST
19F000266 17:07:37 25 PD ACCIDENT SHERBORNE BLVD & E STATE BLVD
19F000265 17:08:15 30 TRAFFIC STOP S CALHOUN ST & E PONTIAC ST
19F000268 17:10:28 50 BURGLARY 63XX NINA DR
19F000269 17:11:25 51 THEFT 35XX BROADWAY
19F000267 17:14:23 66V MENTAL VIOL 7XX VILLA PARK CT
19F000270 17:30:53 48 SUSPICIOUS 20XX THOMPSON AVE
19F000282 17:34:29 1 MEET 14XX N HARRISON ST
19F000271 17:36:04 1 MEET XX E MAIN ST
19F000272 17:37:20 48 SUSPICIOUS 78XX TENDALL CT
19F000275 17:42:57 63 CONTACT 58XX BUNT DR
19F000273 17:43:02 24 MISSING PERS 23XX CASS ST
19F000274 17:43:34 65T SUICIDE THR 39XX WEBSTER ST
19F000276 17:46:53 66V MENTAL VIOL 38XX PLYMOUTH RD
19F000277 17:53:35 65A SUICIDE ATT 61XX REVERE PL
19F000278 17:55:34 56 MOLESTING 6XX W PETTIT AVE
19F000280 17:59:36 46 DOMESTIC 14XX NORTHLAND BLVD
19F000279 18:01:22 113 SHOTS FIRED NELSON ST & STOPHLET ST
19F000281 18:16:10 44LB 20XX THOMPSON AVE
19F000283 18:21:00 43 DISTURBANCE 15XX HIGH ST
19F000284 18:27:50 48,35 11XX BARTHOLD ST
19F000285 18:33:23 102,TX THREATS 12XX W PACKARD AVE
19F000288 18:33:32 63 CONTACT 11XX E COOK RD
19F000286 18:35:25 46 DOMESTIC 2XX COUNTRY FOREST DR
19F000309 18:38:40 24 MISSING PERS 63XX ALVAREZ DR
19F000287 18:40:52 65T SUICIDE THR 49XX OLD MAYSVILLE RD
19F000290 18:48:50 25HS HIT SKIP 38XX COLDWATER RD
19F000289 18:48:54 45 NEIGHBORHOOD 36XX HIAWATHA BLVD
19F000293 18:57:37 113 SHOTS FIRED 10XX N COLISEUM BLVD
19F000291 18:58:10 51JO 59XX ILLINOIS RD
19F000292 19:00:11 43 DISTURBANCE 68XX BLUFFTON RD
19F000294 19:06:10 66 MENTALLY ILL 41XX THORTON DR
19F000296 19:06:31 108 FOLLOWUP 15XX CHANNEL CT
19F000295 19:09:10 101 OPEN DOOR 16XX TYLER AVE
19F000297 19:14:16 46 DOMESTIC 52XX WEBSTER ST
19F000298 19:21:40 40A AUDIBLE 6XX HUFFMAN ST
19F000299 19:22:58 40A AUDIBLE 43XX S LAFAYETTE ST
19F000300 19:25:43 48,36 43XX DEFOREST AVE
19F000301 19:34:58 48 SUSPICIOUS 61XX PLANTATION LN
19F000304 19:38:46 27 RECKLESS DRI 316XX I 69 NB
19F000302 19:42:56 43 DISTURBANCE 6XX TENNESSEE AVE
19F000303 19:45:14 51 THEFT 30XX PLAZA DR
19F000305 19:53:20 43 DISTURBANCE 38XX E STATE BLVD
19F000306 19:57:47 48 SUSPICIOUS 30XX GOSHEN RD
19F000308 19:59:14 22RN RUNAWAY 81XX SUMMERSET PL
19F000307 20:00:56 25HS HIT SKIP CLAY ST & E WAYNE ST
19F000310 20:05:15 103 UNWANTED 42XX S HANNA ST
19F000311 20:09:50 46,62 15XX HIGH ST
19F000312 20:12:46 30 TRAFFIC STOP W JEFFERSON BLVD & GETZ RD
19F000313 20:13:36 46 DOMESTIC 41XX HOAGLAND AVE
19F000322 20:14:47 99 NARCOTICS 9XX DELAWARE AVE
19F000314 20:15:08 30 TRAFFIC STOP RESEARCH DR & INVESTMENT DR
19F000315 20:17:47 46,96 14XX SHERMAN BLVD
19F000316 20:18:57 25 PD ACCIDENT E TILLMAN RD & S ANTHONY BLVD
19F000344 20:28:45 108 FOLLOWUP 23XX POINT WEST DR APT 2C
19F000318 20:32:09 39JO 20XX ST MARYS AVE
19F000317 20:33:28 43 DISTURBANCE 19XX BROADWAY
19F000320 20:37:22 43 DISTURBANCE 6XX TENNESSEE AVE
19F000319 20:37:58 41 MAN DOWN 3XX W SUPERIOR ST
19F000321 20:39:21 103 UNWANTED 6XX W JEFFERSON BLVD
19F000323 20:41:56 46 DOMESTIC 14XX BAXTER ST
19F000324 20:46:55 50IP BURG I/P 63XX NINA DR UNIT 9
19F000325 20:46:59 44FW 43XX AUSTIN DR
19F000341 20:56:08 51 THEFT 3XX W STATE BLVD
19F000326 20:57:12 96JO 6XX FIFTH ST
19F000327 21:08:38 103 UNWANTED 6XX E LEWIS ST
19F000328 21:15:40 49 PROWLER 3XX W BERRY ST
19F000329 21:15:41 48,36 44XX WALKERS RIDGE
19F000332 21:17:20 25 PD ACCIDENT 69XX LOTUS BLOSSOM PL
19F000330 21:17:49 46 DOMESTIC 53XX N STONY RUN LN
19F000342 21:17:50 23,35 VAND VEH 6XX TENNESSEE AVE
19F000331 21:22:03 30 TRAFFIC STOP HILLEGAS RD & BASS RD
19F000340 21:22:54 63 CONTACT 29XX GOSHEN RD
19F000333 21:27:31 30 TRAFFIC STOP W JEFFERSON BLVD & W MAIN ST
19F000334 21:31:22 15 ASSIST 21XX EBY AVE
19F000336 21:33:25 911 HANG UP E BRACKENRIDGE ST & S HANNA ST
19F000335 21:33:40 EMS 10XX FAYETTE DR
19F000337 21:34:28 63 CONTACT 6XX TENNESSEE AVE
19F000338 21:43:30 911 HANG UP 30XX PITTSBURG ST
19F000339 21:52:38 25 PD ACCIDENT 27XX MAPLECREST RD
19F000343 21:56:44 27 RECKLESS DRI 63XX E STATE BLVD
19F000345 22:23:30 63 CONTACT 50XX PLAZA DR
19F000346 22:31:51 22RC RECOVERY 93XX COMFORT CT
19F000347 22:33:09 108 FOLLOWUP 63XX ALVAREZ DR
19F000348 22:38:12 25HS HIT SKIP 17XX OAKLAND ST
19F000349 22:45:16 43 DISTURBANCE 5XX PUTNAM ST
19F000350 22:52:02 27 RECKLESS DRI S HILLEGAS RD & W JEFFERSON BLVD
19F000352 23:05:11 57 STRONG ARM 24XX WOODWARD AVE
19F000351 23:06:06 48 SUSPICIOUS 29XX WESTBROOK DR
19F000354 23:07:33 ATL 75XX BLUFFTON RD
19F000353 23:10:09 43 DISTURBANCE 79XX SERENITY DR
19F000356 23:15:19 25HS HIT SKIP 28XX NEW HAVEN AVE
19F000355 23:18:07 30 TRAFFIC STOP COLDWATER RD & E ESSEX LN
19F000358 23:27:46 46 DOMESTIC 15XX HIGH ST
19F000357 23:29:04 46 DOMESTIC 10XX KINSMOOR AVE
19F000359 23:33:52 59 CUTTING/STAB 16XX E RUDISILL BLVD
19F000360 23:35:24 44LM 1XX RILEY PL
19F000361 23:56:09 63 CONTACT 28XX NEW HAVEN AVE
19F000362 23:57:51 50IP BURG I/P 19XX POINSETTE DR